sat.trackr.live / text

‹ back to catalog

STARLINK-31443

NORAD 59393 · 2024-062V

PAYLOAD ACTIVE UNKNOWN

§ Identity

Operator
Country
US
Launch date
2024-04-02
Launch site
AFWTR
Launch vehicle
Mass (kg)
RCS (m²)

Purposes: comms

External: N2YO · Heavens-Above · Gunter

§ Orbital elements

Epoch: 2026-05-25T00:13:33.780864Z

Period
93.85 min
Inclination
53.1619°
Eccentricity
0.0000876
Mean motion
15.34393480 rev/d
Perigee alt
462.1 km
Apogee alt
463.3 km
Semi-major
6,840.9 km
B*
-8.6868e-7
RAAN
247.6830°
Arg perigee
89.7130°
Mean anomaly
270.3973°
Rev number
12,154

§ Raw data

STARLINK-314431 59393U 24062V   26145.00941876 -.00000405  00000+0 -86868-6 0  99982 59393  53.1619 247.6830 0000876  89.7130 270.3973 15.34393480121549

JSON: /api/v1/satellites/59393 · /tle

For live sub-satellite position, see the globe view (requires WebGL).

§ Visibility from observer

Set your observer location to see the next 7 days of passes ≥ 10°. The values pass through the URL so the page stays shareable.

No JS? Fill the form by hand. The geolocation button needs JavaScript.